Showing default

UWE-4, 43880

Orbit data source: Space-Track

UWE-4, 43880 is a payload satellite owned by U Wurzburg (DE) in SSO that was launched on Thu, 27 Dec 2018 UTC via a SOYUZ-2-1A launch vehicle from the Vostochny Cosmodrome (VOSTO). Payload-class satellites include a variety of spacecraft equipped with specific instruments for various scientific and technological missions. These include communications satellites like Starlink; space stations such as the ISS; scientific satellites like the Hubble; Earth observation satellites from companies like Planet Labs, Umbra, and HawkEye 360; GPS; miniature CubeSats for education and research; and military/defense satellites.

Loading next visibility...
Identifier
43880, 2018-111E
Orbit
SSO
Country
Flag of DEDE / GER
Related business
Manufacturer
U Wurzburg
Mission
Operational Amateur Technology
Bus & Motor
CUBESAT 1U, Unknown motor
Mass
1 kg wet, 1 kg dry
Launch date (UTC)
2018-12-27 (7 years ago)
Launch vehicle
SOYUZ-2-1A
Launch site
Vostochny Cosmodrome (VOSTO)
Object type
Payload
Rocket body
Debris
Shape & HBR
Box, 0.1 m
Radar Cross Section
0.015 m², Medium (>0.1 m² and < 1m²)

Expand to show TLE details & history
Last TLE update: 21 hours ago

TLE from 21 hours ago
0 UWE-4
1 43880U 18111E   26170.73909040  .00028000  00000-0  56934-3 0  9993
2 43880  97.5852  99.2477 0005068 330.7950  29.3015 15.46259003411174
Epoch: 2026-06-19T17:44Z
TLE epoch observation values (Epoch: 2026-06-19T17:44:17.410Z)
Latitude
-0°
Longitude
-74.78859°
Altitude
427.794 km
Speed
7.656 km/s
True Right ascension
06h 36m 59s
True Declination
0° 00' 00"
Sunlit
Object was in daylight at epoch
Visualization orbit readout
Latitude
Unknown
Longitude
Unknown
Altitude
Unknown
Speed
Unknown
Apparent Right ascension
Unknown
Apparent Declination
Unknown
Sunlit
N/A
Visualization observer readout
Local Sidereal Time
01:36:40
Azimuth
Unknown
Elevation
Unknown
Doppler factor
Unknown
Orbital elements
Apogee altitude
428.068 km
Perigee altitude
421.172 km
Semi-major axis
6,802.757 km
Eccentricity
0.00051
Inclination
97.5852°
RAAN
99.2477°
Arg. of periapsis
330.795°
True anomaly
29.32994°
Mean anomaly
29.3015°
Eccentric anomaly
29.31572°
Mean motion
3.86826 °/min
Orbital period
93.07 mins
BSTAR
0.00056934
Loading maneuver chart data...
Computing Atmospheric mass density...

Documentation

Showing up to 5 results
|